Time,TemperatureF,DewpointF,PressureIn,WindDirection,WindDirectionDegrees,WindSpeedMPH,WindSpeedGustMPH,Humidity,HourlyPrecipIn,Conditions,Clouds,dailyrainin,SoftwareType,DateUTC
2013-05-24 00:03:00,51.0,-99.9,-100.00,ESE,115,7.0,-999.0,0,-99.99,,,-99.99,,2013-05-24 05:03:00,
2013-05-24 00:12:00,51.0,-99.9,-100.00,ESE,116,8.0,-999.0,0,-99.99,,,-99.99,,2013-05-24 05:12:00,
2013-05-24 00:22:00,51.0,-99.9,-100.00,SE,134,6.0,-999.0,0,-99.99,,,-99.99,,2013-05-24 05:22:00,
2013-05-24 00:32:00,51.0,-99.9,-100.00,ESE,122,8.0,-999.0,0,-99.99,,,-99.99,,2013-05-24 05:32:00,
2013-05-24 00:42:00,50.0,-99.9,-100.00,SE,127,8.0,-999.0,0,-99.99,,,-99.99,,2013-05-24 05:42:00,
2013-05-24 00:52:00,50.0,-99.9,-100.00,East,93,8.0,-999.0,0,-99.99,,,-99.99,,2013-05-24 05:52:00,
2013-05-24 01:02:00,49.0,-99.9,-100.00,ESE,108,8.0,-999.0,0,-99.99,,,-99.99,,2013-05-24 06:02:00,
2013-05-24 01:12:00,49.0,-99.9,-100.00,ESE,110,7.0,-999.0,0,-99.99,,,-99.99,,2013-05-24 06:12:00,
2013-05-24 01:22:00,48.0,-99.9,-100.00,ESE,121,11.0,-999.0,0,-99.99,,,-99.99,,2013-05-24 06:22:00,
2013-05-24 01:32:00,48.0,-99.9,-100.00,ESE,117,11.0,-999.0,0,-99.99,,,-99.99,,2013-05-24 06:32:00,
2013-05-24 01:42:00,49.0,-99.9,-100.00,ESE,123,12.0,-999.0,0,-99.99,,,-99.99,,2013-05-24 06:42:00,
2013-05-24 01:52:00,49.0,-99.9,-100.00,SE,136,12.0,-999.0,0,-99.99,,,-99.99,,2013-05-24 06:52:00,
2013-05-24 02:02:00,49.0,-99.9,-100.00,SE,130,8.0,-999.0,0,-99.99,,,-99.99,,2013-05-24 07:02:00,
2013-05-24 02:11:00,49.0,-99.9,-100.00,SE,130,9.0,-999.0,0,-99.99,,,-99.99,,2013-05-24 07:11:00,
2013-05-24 02:22:00,49.0,-99.9,-100.00,ESE,123,11.0,-999.0,0,-99.99,,,-99.99,,2013-05-24 07:22:00,
2013-05-24 02:32:00,49.0,-99.9,-100.00,SE,128,11.0,-999.0,0,-99.99,,,-99.99,,2013-05-24 07:32:00,
2013-05-24 02:42:00,49.0,-99.9,-100.00,SE,144,10.0,-999.0,0,-99.99,,,-99.99,,2013-05-24 07:42:00,
2013-05-24 02:52:00,49.0,-99.9,-100.00,ESE,123,10.0,-999.0,0,-99.99,,,-99.99,,2013-05-24 07:52:00,
2013-05-24 03:02:00,49.0,-99.9,-100.00,SE,133,13.0,-999.0,0,-99.99,,,-99.99,,2013-05-24 08:02:00,
2013-05-24 03:11:00,48.0,-99.9,-100.00,ESE,122,12.0,-999.0,0,-99.99,,,-99.99,,2013-05-24 08:11:00,
2013-05-24 03:22:00,47.0,-99.9,-100.00,SE,128,11.0,-999.0,0,-99.99,,,-99.99,,2013-05-24 08:22:00,
2013-05-24 03:33:00,47.0,-99.9,-100.00,SE,128,11.0,-999.0,0,-99.99,,,-99.99,,2013-05-24 08:33:00,
2013-05-24 03:42:00,48.0,-99.9,-100.00,SE,129,9.0,-999.0,0,-99.99,,,-99.99,,2013-05-24 08:42:00,
2013-05-24 03:52:00,48.0,-99.9,-100.00,ESE,116,7.0,-999.0,0,-99.99,,,-99.99,,2013-05-24 08:52:00,
2013-05-24 04:02:00,48.0,-99.9,-100.00,SE,127,10.0,-999.0,0,-99.99,,,-99.99,,2013-05-24 09:02:00,
2013-05-24 04:11:00,48.0,-99.9,-100.00,SE,143,9.0,-999.0,0,-99.99,,,-99.99,,2013-05-24 09:11:00,
2013-05-24 04:22:00,47.0,-99.9,-100.00,SE,129,11.0,-999.0,0,-99.99,,,-99.99,,2013-05-24 09:22:00,
2013-05-24 04:33:00,47.0,-99.9,-100.00,SE,125,8.0,-999.0,0,-99.99,,,-99.99,,2013-05-24 09:33:00,
2013-05-24 04:43:00,47.0,-99.9,-100.00,SE,139,9.0,-999.0,0,-99.99,,,-99.99,,2013-05-24 09:43:00,
2013-05-24 04:53:00,47.0,-99.9,-100.00,SSE,148,10.0,-999.0,0,-99.99,,,-99.99,,2013-05-24 09:53:00,
2013-05-24 05:03:00,47.0,-99.9,-100.00,SSE,156,13.0,-999.0,0,-99.99,,,-99.99,,2013-05-24 10:03:00,
2013-05-24 05:12:00,47.0,-99.9,-100.00,SSE,153,12.0,-999.0,0,-99.99,,,-99.99,,2013-05-24 10:12:00,
2013-05-24 05:23:00,46.0,-99.9,-100.00,SSE,164,7.0,-999.0,0,-99.99,,,-99.99,,2013-05-24 10:23:00,
2013-05-24 05:33:00,46.0,-99.9,-100.00,SSE,167,8.0,-999.0,0,-99.99,,,-99.99,,2013-05-24 10:33:00,
2013-05-24 05:42:00,47.0,-99.9,-100.00,SSE,165,10.0,-999.0,0,-99.99,,,-99.99,,2013-05-24 10:42:00,
2013-05-24 05:53:00,47.0,-99.9,-100.00,South,178,10.0,-999.0,0,-99.99,,,-99.99,,2013-05-24 10:53:00,
2013-05-24 06:02:00,47.0,-99.9,-100.00,SSE,158,11.0,-999.0,0,-99.99,,,-99.99,,2013-05-24 11:02:00,
2013-05-24 06:12:00,47.0,-99.9,-100.00,South,171,11.0,-999.0,0,-99.99,,,-99.99,,2013-05-24 11:12:00,
2013-05-24 06:23:00,46.0,-99.9,-100.00,SSE,162,12.0,-999.0,0,-99.99,,,-99.99,,2013-05-24 11:23:00,
2013-05-24 06:32:00,47.0,-99.9,-100.00,SE,146,14.0,-999.0,0,-99.99,,,-99.99,,2013-05-24 11:32:00,
2013-05-24 06:42:00,47.0,-99.9,-100.00,South,177,12.0,-999.0,0,-99.99,,,-99.99,,2013-05-24 11:42:00,
2013-05-24 06:52:00,47.0,-99.9,-100.00,South,169,13.0,-999.0,0,-99.99,,,-99.99,,2013-05-24 11:52:00,
2013-05-24 07:02:00,48.0,-99.9,-100.00,SSE,164,17.0,-999.0,0,-99.99,,,-99.99,,2013-05-24 12:02:00,
2013-05-24 07:12:00,48.0,-99.9,-100.00,SSE,165,13.0,-999.0,0,-99.99,,,-99.99,,2013-05-24 12:12:00,
2013-05-24 07:22:00,49.0,-99.9,-100.00,SSE,167,9.0,-999.0,0,-99.99,,,-99.99,,2013-05-24 12:22:00,
2013-05-24 07:33:00,49.0,-99.9,-100.00,SSE,156,16.0,-999.0,0,-99.99,,,-99.99,,2013-05-24 12:33:00,
2013-05-24 07:42:00,49.0,-99.9,-100.00,South,169,11.0,-999.0,0,-99.99,,,-99.99,,2013-05-24 12:42:00,
2013-05-24 07:52:00,50.0,-99.9,-100.00,South,176,13.0,-999.0,0,-99.99,,,-99.99,,2013-05-24 12:52:00,
2013-05-24 08:02:00,50.0,-99.9,-100.00,SSE,163,20.0,-999.0,0,-99.99,,,-99.99,,2013-05-24 13:02:00,
2013-05-24 08:11:00,51.0,-99.9,-100.00,SSE,154,21.0,-999.0,0,-99.99,,,-99.99,,2013-05-24 13:11:00,
2013-05-24 08:22:00,51.0,-99.9,-100.00,SSE,168,20.0,-999.0,0,-99.99,,,-99.99,,2013-05-24 13:22:00,
2013-05-24 08:32:00,52.0,-99.9,-100.00,SSE,165,22.0,-999.0,0,-99.99,,,-99.99,,2013-05-24 13:32:00,
2013-05-24 08:42:00,53.0,-99.9,-100.00,South,178,24.0,-999.0,0,-99.99,,,-99.99,,2013-05-24 13:42:00,
2013-05-24 08:52:00,54.0,-99.9,-100.00,South,184,21.0,-999.0,0,-99.99,,,-99.99,,2013-05-24 13:52:00,
2013-05-24 09:02:00,55.0,-99.9,-100.00,South,174,25.0,-999.0,0,-99.99,,,-99.99,,2013-05-24 14:02:00,
2013-05-24 09:11:00,56.0,-99.9,-100.00,SSE,168,31.0,-999.0,0,-99.99,,,-99.99,,2013-05-24 14:11:00,
2013-05-24 09:22:00,56.0,-99.9,-100.00,South,181,30.0,-999.0,0,-99.99,,,-99.99,,2013-05-24 14:22:00,
2013-05-24 09:32:00,55.0,-99.9,-100.00,South,170,26.0,-999.0,0,-99.99,,,-99.99,,2013-05-24 14:32:00,
2013-05-24 09:42:00,56.0,-99.9,-100.00,South,181,14.0,-999.0,0,-99.99,,,-99.99,,2013-05-24 14:42:00,
2013-05-24 09:52:00,56.0,-99.9,-100.00,South,173,22.0,-999.0,0,-99.99,,,-99.99,,2013-05-24 14:52:00,
2013-05-24 10:02:00,56.0,-99.9,-100.00,South,173,22.0,-999.0,0,-99.99,,,-99.99,,2013-05-24 15:02:00,
2013-05-24 10:11:00,57.0,-99.9,-100.00,South,170,23.0,-999.0,0,-99.99,,,-99.99,,2013-05-24 15:11:00,
2013-05-24 10:22:00,58.0,-99.9,-100.00,South,185,20.0,-999.0,0,-99.99,,,-99.99,,2013-05-24 15:22:00,
2013-05-24 10:33:00,58.0,-99.9,-100.00,South,178,28.0,-999.0,0,-99.99,,,-99.99,,2013-05-24 15:33:00,
2013-05-24 10:43:00,59.0,-99.9,-100.00,SSE,163,26.0,-999.0,0,-99.99,,,-99.99,,2013-05-24 15:43:00,
2013-05-24 10:53:00,60.0,-99.9,-100.00,South,171,28.0,-999.0,0,-99.99,,,-99.99,,2013-05-24 15:53:00,
2013-05-24 11:03:00,60.0,-99.9,-100.00,South,175,24.0,-999.0,0,-99.99,,,-99.99,,2013-05-24 16:03:00,
2013-05-24 11:13:00,61.0,-99.9,-100.00,South,182,24.0,-999.0,0,-99.99,,,-99.99,,2013-05-24 16:13:00,
2013-05-24 11:22:00,62.0,-99.9,-100.00,South,183,24.0,-999.0,0,-99.99,,,-99.99,,2013-05-24 16:22:00,
2013-05-24 11:33:00,63.0,-99.9,-100.00,South,179,27.0,-999.0,0,-99.99,,,-99.99,,2013-05-24 16:33:00,
2013-05-24 11:42:00,63.0,-99.9,-100.00,South,175,32.0,-999.0,0,-99.99,,,-99.99,,2013-05-24 16:42:00,
2013-05-24 11:52:00,63.0,-99.9,-100.00,SSE,166,31.0,-999.0,0,-99.99,,,-99.99,,2013-05-24 16:52:00,
2013-05-24 12:02:00,63.0,-99.9,-100.00,SSW,195,20.0,-999.0,0,-99.99,,,-99.99,,2013-05-24 17:02:00,
2013-05-24 12:12:00,64.0,-99.9,-100.00,South,180,29.0,-999.0,0,-99.99,,,-99.99,,2013-05-24 17:12:00,
2013-05-24 12:22:00,65.0,-99.9,-100.00,SSE,164,34.0,-999.0,0,-99.99,,,-99.99,,2013-05-24 17:22:00,
2013-05-24 12:32:00,65.0,-99.9,-100.00,South,175,26.0,-999.0,0,-99.99,,,-99.99,,2013-05-24 17:32:00,
2013-05-24 12:42:00,65.0,-99.9,-100.00,South,185,34.0,-999.0,0,-99.99,,,-99.99,,2013-05-24 17:42:00,
2013-05-24 12:52:00,66.0,-99.9,-100.00,SSE,168,28.0,-999.0,0,-99.99,,,-99.99,,2013-05-24 17:52:00,
2013-05-24 13:01:00,66.0,-99.9,-100.00,SSE,165,32.0,-999.0,0,-99.99,,,-99.99,,2013-05-24 18:01:00,
2013-05-24 13:12:00,67.0,-99.9,-100.00,SSW,192,26.0,-999.0,0,-99.99,,,-99.99,,2013-05-24 18:12:00,
2013-05-24 13:22:00,66.0,-99.9,-100.00,South,176,27.0,-999.0,0,-99.99,,,-99.99,,2013-05-24 18:22:00,
2013-05-24 13:32:00,65.0,-99.9,-100.00,SSW,192,22.0,-999.0,0,-99.99,,,-99.99,,2013-05-24 18:32:00,
2013-05-24 13:42:00,63.0,-99.9,-100.00,South,171,27.0,-999.0,0,-99.99,,,-99.99,,2013-05-24 18:42:00,
2013-05-24 13:52:00,63.0,-99.9,-100.00,South,185,22.0,-999.0,0,-99.99,,,-99.99,,2013-05-24 18:52:00,
2013-05-24 14:02:00,63.0,-99.9,-100.00,South,182,30.0,-999.0,0,-99.99,,,-99.99,,2013-05-24 19:02:00,
2013-05-24 14:11:00,63.0,-99.9,-100.00,South,175,18.0,-999.0,0,-99.99,,,-99.99,,2013-05-24 19:11:00,
2013-05-24 14:22:00,63.0,-99.9,-100.00,South,172,17.0,-999.0,0,-99.99,,,-99.99,,2013-05-24 19:22:00,
2013-05-24 14:32:00,63.0,-99.9,-100.00,South,173,17.0,-999.0,0,-99.99,,,-99.99,,2013-05-24 19:32:00,
2013-05-24 14:42:00,64.0,-99.9,-100.00,South,177,27.0,-999.0,0,-99.99,,,-99.99,,2013-05-24 19:42:00,
2013-05-24 14:52:00,64.0,-99.9,-100.00,South,173,24.0,-999.0,0,-99.99,,,-99.99,,2013-05-24 19:52:00,
2013-05-24 15:02:00,64.0,-99.9,-100.00,South,176,23.0,-999.0,0,-99.99,,,-99.99,,2013-05-24 20:02:00,
2013-05-24 15:12:00,62.0,-99.9,-100.00,South,187,15.0,-999.0,0,-99.99,,,-99.99,,2013-05-24 20:12:00,
2013-05-24 15:22:00,63.0,-99.9,-100.00,SSW,205,10.0,-999.0,0,-99.99,,,-99.99,,2013-05-24 20:22:00,
2013-05-24 15:32:00,63.0,-99.9,-100.00,SSW,196,4.0,-999.0,0,-99.99,,,-99.99,,2013-05-24 20:32:00,
2013-05-24 15:42:00,60.0,-99.9,-100.00,East,96,11.0,-999.0,0,-99.99,,,-99.99,,2013-05-24 20:42:00,
2013-05-24 15:52:00,61.0,-99.9,-100.00,East,81,1.0,-999.0,0,-99.99,,,-99.99,,2013-05-24 20:52:00,
2013-05-24 16:02:00,61.0,-99.9,-100.00,ESE,109,5.0,-999.0,0,-99.99,,,-99.99,,2013-05-24 21:02:00,
2013-05-24 16:12:00,61.0,-99.9,-100.00,SE,124,8.0,-999.0,0,-99.99,,,-99.99,,2013-05-24 21:12:00,
2013-05-24 16:22:00,59.0,-99.9,-100.00,SE,130,16.0,-999.0,0,-99.99,,,-99.99,,2013-05-24 21:22:00,
2013-05-24 16:33:00,60.0,-99.9,-100.00,South,176,10.0,-999.0,0,-99.99,,,-99.99,,2013-05-24 21:33:00,
2013-05-24 16:43:00,61.0,-99.9,-100.00,South,174,16.0,-999.0,0,-99.99,,,-99.99,,2013-05-24 21:43:00,
2013-05-24 16:53:00,61.0,-99.9,-100.00,SE,146,10.0,-999.0,0,-99.99,,,-99.99,,2013-05-24 21:53:00,
2013-05-24 17:03:00,61.0,-99.9,-100.00,ESE,113,5.0,-999.0,0,-99.99,,,-99.99,,2013-05-24 22:03:00,
2013-05-24 17:12:00,61.0,-99.9,-100.00,SE,130,4.0,-999.0,0,-99.99,,,-99.99,,2013-05-24 22:12:00,
2013-05-24 17:22:00,60.0,-99.9,-100.00,East,91,6.0,-999.0,0,-99.99,,,-99.99,,2013-05-24 22:22:00,
2013-05-24 17:33:00,61.0,-99.9,-100.00,ESE,110,6.0,-999.0,0,-99.99,,,-99.99,,2013-05-24 22:33:00,
2013-05-24 17:42:00,61.0,-99.9,-100.00,East,100,10.0,-999.0,0,-99.99,,,-99.99,,2013-05-24 22:42:00,
2013-05-24 17:52:00,61.0,-99.9,-100.00,East,96,8.0,-999.0,0,-99.99,,,-99.99,,2013-05-24 22:52:00,
2013-05-24 18:02:00,61.0,-99.9,-100.00,East,91,5.0,-999.0,0,-99.99,,,-99.99,,2013-05-24 23:02:00,
2013-05-24 18:11:00,61.0,-99.9,-100.00,ESE,108,11.0,-999.0,0,-99.99,,,-99.99,,2013-05-24 23:11:00,
2013-05-24 18:22:00,61.0,-99.9,-100.00,East,93,9.0,-999.0,0,-99.99,,,-99.99,,2013-05-24 23:22:00,
2013-05-24 18:32:00,61.0,-99.9,-100.00,ESE,111,13.0,-999.0,0,-99.99,,,-99.99,,2013-05-24 23:32:00,
2013-05-24 18:42:00,61.0,-99.9,-100.00,SE,125,10.0,-999.0,0,-99.99,,,-99.99,,2013-05-24 23:42:00,
2013-05-24 18:52:00,61.0,-99.9,-100.00,SE,135,7.0,-999.0,0,-99.99,,,-99.99,,2013-05-24 23:52:00,
2013-05-24 19:01:00,61.0,-99.9,-100.00,ESE,112,9.0,-999.0,0,-99.99,,,-99.99,,2013-05-25 00:01:00,
2013-05-24 19:12:00,61.0,-99.9,-100.00,ESE,108,7.0,-999.0,0,-99.99,,,-99.99,,2013-05-25 00:12:00,
2013-05-24 19:22:00,61.0,-99.9,-100.00,ESE,110,8.0,-999.0,0,-99.99,,,-99.99,,2013-05-25 00:22:00,
2013-05-24 19:32:00,61.0,-99.9,-100.00,ESE,120,9.0,-999.0,0,-99.99,,,-99.99,,2013-05-25 00:32:00,
2013-05-24 19:42:00,62.0,-99.9,-100.00,SE,132,9.0,-999.0,0,-99.99,,,-99.99,,2013-05-25 00:42:00,
2013-05-24 19:52:00,62.0,-99.9,-100.00,SE,132,9.0,-999.0,0,-99.99,,,-99.99,,2013-05-25 00:52:00,
2013-05-24 20:01:00,62.0,-99.9,-100.00,SE,138,16.0,-999.0,0,-99.99,,,-99.99,,2013-05-25 01:01:00,
2013-05-24 20:11:00,62.0,-99.9,-100.00,SE,138,16.0,-999.0,0,-99.99,,,-99.99,,2013-05-25 01:11:00,
2013-05-24 20:22:00,62.0,-99.9,-100.00,South,170,18.0,-999.0,0,-99.99,,,-99.99,,2013-05-25 01:22:00,
2013-05-24 20:33:00,62.0,-99.9,-100.00,South,175,17.0,-999.0,0,-99.99,,,-99.99,,2013-05-25 01:33:00,
2013-05-24 20:42:00,63.0,-99.9,-100.00,SSE,168,14.0,-999.0,0,-99.99,,,-99.99,,2013-05-25 01:42:00,
2013-05-24 20:52:00,62.0,-99.9,-100.00,South,187,8.0,-999.0,0,-99.99,,,-99.99,,2013-05-25 01:52:00,
2013-05-24 21:02:00,63.0,-99.9,-100.00,South,169,18.0,-999.0,0,-99.99,,,-99.99,,2013-05-25 02:02:00,
2013-05-24 21:12:00,63.0,-99.9,-100.00,South,178,13.0,-999.0,0,-99.99,,,-99.99,,2013-05-25 02:12:00,
2013-05-24 21:22:00,63.0,-99.9,-100.00,South,170,21.0,-999.0,0,-99.99,,,-99.99,,2013-05-25 02:22:00,
2013-05-24 21:32:00,62.0,-99.9,-100.00,SSE,166,17.0,-999.0,0,-99.99,,,-99.99,,2013-05-25 02:32:00,
2013-05-24 21:42:00,62.0,-99.9,-100.00,South,178,12.0,-999.0,0,-99.99,,,-99.99,,2013-05-25 02:42:00,
2013-05-24 21:52:00,62.0,-99.9,-100.00,SSE,159,15.0,-999.0,0,-99.99,,,-99.99,,2013-05-25 02:52:00,
2013-05-24 22:02:00,62.0,-99.9,-100.00,South,169,17.0,-999.0,0,-99.99,,,-99.99,,2013-05-25 03:02:00,
2013-05-24 22:12:00,62.0,-99.9,-100.00,SSE,160,20.0,-999.0,0,-99.99,,,-99.99,,2013-05-25 03:12:00,
2013-05-24 22:22:00,62.0,-99.9,-100.00,SSE,162,14.0,-999.0,0,-99.99,,,-99.99,,2013-05-25 03:22:00,
2013-05-24 22:33:00,62.0,-99.9,-100.00,SSE,166,15.0,-999.0,0,-99.99,,,-99.99,,2013-05-25 03:33:00,
2013-05-24 22:43:00,62.0,-99.9,-100.00,South,172,14.0,-999.0,0,-99.99,,,-99.99,,2013-05-25 03:43:00,
2013-05-24 22:53:00,62.0,-99.9,-100.00,South,172,14.0,-999.0,0,-99.99,,,-99.99,,2013-05-25 03:53:00,
2013-05-24 23:03:00,62.0,-99.9,-100.00,SSE,165,16.0,-999.0,0,-99.99,,,-99.99,,2013-05-25 04:03:00,
2013-05-24 23:13:00,62.0,-99.9,-100.00,SSE,166,22.0,-999.0,0,-99.99,,,-99.99,,2013-05-25 04:13:00,
2013-05-24 23:23:00,62.0,-99.9,-100.00,SSE,168,17.0,-999.0,0,-99.99,,,-99.99,,2013-05-25 04:23:00,
2013-05-24 23:33:00,62.0,-99.9,-100.00,South,179,14.0,-999.0,0,-99.99,,,-99.99,,2013-05-25 04:33:00,
2013-05-24 23:43:00,62.0,-99.9,-100.00,South,170,18.0,-999.0,0,-99.99,,,-99.99,,2013-05-25 04:43:00,
2013-05-24 23:53:00,62.0,-99.9,-100.00,SSE,164,15.0,-999.0,0,-99.99,,,-99.99,,2013-05-25 04:53:00,